This is the latest recevied weather packets stored in our database for station/object KG5MMT-15. If no packets are shown the sender has not sent any weather packets the latest 10 day(s).
| Time | Temp. | Humidity | Pressure | Rain* | Wind** | Luminosity | Snow |
|---|---|---|---|---|---|---|---|
| 1777455452 | 3.89° C | 64% | 0 hPa | 0 mm | - | - | - |
| 1777455152 | 4.44° C | 63% | 0 hPa | 0 mm | - | - | - |
| 1777454852 | 5° C | 62% | 0 hPa | 0 mm | - | - | - |
| 1777454552 | 5° C | 62% | 0 hPa | 0 mm | - | - | - |
| 1777454252 | 5° C | 61% | 0 hPa | 0 mm | - | - | - |
| 1777453952 | 6.11° C | 59% | 0 hPa | 0 mm | - | - | - |
| 1777453652 | 6.11° C | 58% | 0 hPa | 0 mm | - | - | - |
| 1777453352 | 6.67° C | 58% | 0 hPa | 0 mm | - | - | - |
| 1777453052 | 6.67° C | 59% | 0 hPa | 0 mm | - | - | - |
| 1777452752 | 6.67° C | 59% | 0 hPa | 0 mm | - | - | - |
| 1777452452 | 6.67° C | 59% | 0 hPa | 0 mm | - | - | - |
| 1777451852 | 6.67° C | 59% | 0 hPa | 0 mm | - | - | - |
| 1777451552 | 7.22° C | 57% | 0 hPa | 0 mm | - | - | - |
| 1777451252 | 7.22° C | 58% | 0 hPa | 0 mm | - | - | - |
| 1777450952 | 6.67° C | 59% | 0 hPa | 0 mm | - | - | - |
| 1777450652 | 7.22° C | 56% | 0 hPa | 0 mm | - | - | - |
| 1777450352 | 7.22° C | 55% | 0 hPa | 0 mm | - | - | - |
| 1777450052 | 7.22° C | 50% | 0 hPa | 0 mm | - | - | - |
| 1777449752 | 8.33° C | 43% | 0 hPa | 0 mm | - | - | - |
| 1777449452 | 8.89° C | 38% | 0 hPa | 0 mm | - | - | - |
| 1777449152 | 9.44° C | 32% | 0 hPa | 0 mm | - | - | - |
| 1777448552 | 9.44° C | 27% | 0 hPa | 0 mm | - | - | - |
| 1777448252 | 10° C | 28% | 0 hPa | 0 mm | - | - | - |
| 1777447952 | 10° C | 26% | 0 hPa | 0 mm | - | - | - |
| 1777447652 | 10° C | 22% | 0 hPa | 0 mm | - | - | - |
* Rain latest hour (hover to see other rain measurements)
** Current wind speed in m/s (hover to see current wind gust speed)